GFSFLT1_sfc_rhum_336.txt.gz
RH
22 24 29 27 33 37 41 45 46 46 55 67 67 82 80 68 65 52 68 86 91 77 80 95 86 79 77 70 69 67 71 86 71
22 24 29 27 32 36 40 44 47 48 53 58 65 78 85 86 66 74 78 84 88 87 91 90 82 77 77 72 74 80 79 77 76
21 25 28 27 31 33 37 38 42 45 49 54 55 61 76 82 83 88 87 87 89 79 77 75 76 79 77 80 80 79 69 59 67
22 26 27 29 30 31 33 36 40 45 46 58 55 52 65 60 64 60 62 63 76 82 83 82 83 84 83 81 74 71 72 71 68
22 26 28 29 30 30 33 37 38 40 43 47 48 54 63 63 61 61 60 76 83 80 92 78 80 78 77 74 72 70 68 64 62
28 29 30 29 29 32 34 37 38 38 41 43 46 54 57 58 60 71 84 89 81 81 78 79 76 75 74 73 70 70 68 66 63
27 30 32 27 27 30 35 40 43 44 43 41 48 49 57 60 60 72 80 77 82 80 78 75 72 70 71 68 64 63 61 62 62
28 28 28 26 26 33 41 46 49 52 47 56 54 55 52 62 65 67 76 80 83 77 73 75 73 72 68 62 55 44 59 57 57
26 25 26 26 29 37 43 47 55 55 55 56 60 60 60 69 76 82 81 86 78 78 76 76 74 69 66 58 40 84 78 62 53
25 22 23 25 29 36 41 45 52 54 57 58 66 70 69 78 83 82 84 82 83 75 72 69 70 65 61 60 65 84 77 71 41
24 23 23 28 28 36 39 39 44 47 53 65 72 74 77 82 84 84 87 80 75 73 66 67 64 62 63 62 64 82 75 66 43
20 21 19 22 24 30 42 43 49 56 62 69 73 76 83 84 82 82 80 77 73 66 63 61 58 58 61 59 66 80 74 60 37
17 18 19 20 22 26 36 43 49 63 68 72 75 76 84 82 81 80 78 74 73 68 62 55 46 56 54 61 59 77 76 56 31
16 17 20 22 23 28 39 50 55 66 67 72 71 76 80 86 82 79 75 75 72 70 63 62 61 61 56 55 54 63 80 70 37
18 18 20 26 27 39 49 58 62 66 70 70 76 85 84 88 83 67 67 76 74 72 69 71 71 68 56 48 57 67 77 74 69
19 20 23 26 29 44 52 60 60 65 71 75 80 86 86 85 80 70 72 74 75 63 69 56 58 55 46 45 45 45 80 78 76
19 21 26 28 32 44 57 60 63 60 71 74 79 82 82 78 75 72 69 57 57 48 49 44 42 42 43 45 44 40 39 40 43
25 23 27 32 34 45 56 60 63 56 69 71 70 73 71 71 63 66 64 55 48 41 48 39 35 35 37 43 45 41 46 43 34
36 27 32 38 39 46 54 58 59 63 63 66 62 65 62 60 56 52 48 45 50 88 73 73 69 67 50 42 63 74 76 76 78
42 37 41 45 48 48 57 62 60 64 64 64 65 59 60 55 53 42 43 43 45 47 58 85 79 82 78 73 75 80 82 80 85

GFSFLT1_sfc_rhum_339.txt.gz
RH
18 20 20 24 28 31 34 38 39 43 54 60 60 65 66 64 62 52 47 61 50 55 60 57 67 64 69 71 79 78 80 76 70
18 19 21 24 27 30 35 38 40 41 53 54 64 66 72 67 61 54 63 67 74 84 75 66 75 69 74 78 77 74 71 64 65
17 19 22 24 26 28 31 33 35 38 46 50 67 75 73 56 54 60 83 82 88 86 70 69 77 74 77 75 75 70 63 53 66
15 17 22 22 26 27 28 30 33 38 41 43 60 75 78 73 67 74 65 77 86 74 66 68 73 79 79 80 71 68 71 69 65
15 19 21 22 26 28 29 31 31 34 40 40 40 54 69 74 75 73 66 64 67 69 77 73 78 80 82 71 68 68 67 62 60
18 19 21 22 24 27 30 30 32 32 36 49 43 66 59 63 53 51 51 66 72 73 76 78 75 73 75 75 72 67 66 64 59
19 22 24 22 22 26 30 34 37 40 36 55 44 50 51 58 53 55 60 71 78 75 78 81 80 79 78 67 61 59 57 58 58
20 23 23 23 22 28 35 41 43 44 36 57 42 50 54 57 61 70 75 80 86 83 85 80 82 78 63 59 53 44 56 53 53
22 21 23 23 24 30 37 41 50 49 46 45 49 61 65 74 79 84 85 83 85 83 82 82 72 66 64 55 39 80 75 58 50
20 19 21 21 23 28 35 39 47 48 51 53 62 66 66 72 83 86 87 86 84 78 76 72 69 64 59 57 62 78 72 64 40
19 19 19 23 22 29 33 34 40 44 47 67 75 78 72 79 85 86 87 84 81 72 65 67 65 62 61 62 62 77 71 59 42
17 18 16 17 18 23 37 40 47 52 57 66 73 75 83 88 87 88 83 84 76 67 64 63 58 58 63 62 66 80 76 68 40
13 14 15 17 16 20 27 34 40 55 63 70 74 76 81 86 86 85 83 80 75 69 64 57 46 59 58 64 64 82 79 70 33
12 14 16 16 18 22 31 41 46 61 66 72 72 73 82 86 84 85 82 78 73 72 66 66 65 61 58 56 59 60 81 74 44
14 13 15 15 21 29 40 47 55 67 71 71 75 82 82 87 86 74 74 79 75 74 72 73 70 70 57 47 60 66 76 74 69
16 13 15 15 20 32 44 52 58 68 72 74 76 81 89 88 86 76 78 77 78 64 71 57 60 53 43 43 45 46 73 75 69
26 16 16 16 20 33 49 54 62 63 69 72 78 82 88 86 82 77 73 60 59 51 53 50 48 45 39 40 41 38 38 39 41
35 35 18 19 24 36 50 57 62 52 66 70 72 74 77 79 68 71 70 59 51 44 52 43 40 39 38 40 42 38 44 41 36
43 40 32 26 31 36 50 54 56 55 58 67 62 63 63 64 58 61 58 48 53 89 72 71 71 74 48 37 52 69 72 76 74
57 54 44 33 39 40 52 56 55 56 60 64 64 58 58 54 56 54 52 43 44 44 59 84 78 79 77 70 66 75 75 78 81

GFSFLT1_sfc_rhum_342.txt.gz
RH
24 23 21 26 38 42 43 42 45 52 60 70 70 74 76 83 83 91 76 75 78 72 81 87 80 74 79 81 84 82 87 89 84
21 21 25 27 34 34 39 42 49 54 62 63 69 62 81 82 84 79 66 77 78 78 82 72 77 78 80 84 84 84 86 80 77
18 19 24 26 27 28 33 35 39 48 58 60 62 56 62 66 80 79 76 77 80 85 90 85 85 81 85 87 83 83 82 76 79
16 20 24 29 29 29 30 34 37 45 52 57 69 64 73 62 62 63 76 78 85 92 83 82 88 90 87 85 76 80 84 82 81
18 22 23 28 32 30 32 35 35 38 44 53 66 74 77 66 66 69 68 80 89 84 80 88 90 87 86 82 82 82 82 77 76
24 25 26 27 28 32 33 34 38 38 41 48 56 76 76 77 71 70 71 86 86 79 88 88 83 84 88 87 82 82 81 80 78
20 23 28 24 25 30 36 40 46 48 46 50 56 57 59 67 61 60 76 86 81 81 87 87 85 85 84 79 76 76 74 75 77
22 22 22 25 24 36 44 50 53 54 47 57 61 66 68 72 70 77 85 86 89 89 85 86 86 85 80 75 68 54 75 72 72
23 23 25 26 32 41 45 51 57 57 66 61 60 69 64 71 84 85 86 89 89 91 88 88 85 80 77 75 54 81 74 67 68
22 22 26 27 33 38 42 47 54 56 66 62 71 79 78 83 92 92 92 91 91 89 86 82 82 79 76 79 80 77 72 63 60
25 23 27 32 31 39 43 40 44 49 51 69 81 79 81 86 89 91 91 90 88 87 81 81 79 77 79 78 76 73 63 65 65
22 21 23 26 23 31 45 47 53 59 68 76 77 79 84 85 89 90 90 88 87 81 78 77 75 74 79 80 81 76 74 73 62
17 16 17 20 18 26 33 45 50 63 76 77 82 82 85 89 88 88 88 86 85 80 78 74 65 76 76 78 80 81 84 72 62
18 18 19 19 19 28 37 51 55 65 74 80 79 82 89 89 89 88 86 87 83 81 79 78 79 79 78 77 78 79 79 76 73
42 38 19 19 23 37 45 51 61 68 74 76 81 85 90 91 90 80 81 86 83 82 82 83 81 81 74 70 79 77 79 72 71
59 65 20 17 21 43 48 53 59 68 74 78 81 90 90 89 89 84 84 85 84 77 81 72 73 70 64 63 68 69 77 71 70
38 40 43 19 24 43 52 54 61 64 72 76 82 88 90 88 88 85 83 76 75 69 68 67 65 65 61 58 61 58 61 60 65
38 48 50 50 29 45 54 58 63 61 70 74 82 84 83 85 80 84 82 76 71 65 67 61 62 59 56 56 57 52 58 57 56
47 50 55 56 51 49 56 59 63 66 67 74 77 80 81 80 78 78 77 73 72 88 78 70 75 72 58 53 60 69 66 65 69
52 52 59 64 64 53 60 63 64 65 69 74 77 75 78 76 74 71 74 70 64 63 67 81 82 74 66 71 64 71 66 68 76

GFSFLT1_sfc_rhum_345.txt.gz
RH
40 40 55 62 65 61 64 56 64 71 80 89 91 93 93 94 92 96 85 88 91 81 93 91 86 89 90 90 90 94 92 94 88
39 38 47 58 60 54 55 55 62 72 80 82 85 93 95 94 94 92 92 88 87 93 90 88 82 88 90 94 90 91 92 88 88
35 34 40 46 48 49 63 53 57 63 72 78 77 84 92 89 92 90 87 92 90 88 90 89 92 92 95 93 91 87 86 92 88
31 36 42 44 45 44 46 53 57 65 68 77 86 94 91 93 91 88 90 92 90 91 92 93 97 96 94 86 85 88 89 89 85
32 32 36 40 41 42 44 51 58 65 65 88 81 80 94 84 87 91 92 90 90 93 95 97 96 93 82 79 79 89 87 84 83
30 30 33 35 37 41 43 45 56 60 67 73 71 76 83 91 95 84 86 91 94 97 98 97 93 82 82 91 90 88 86 82 87
29 34 34 36 38 41 43 44 47 54 62 70 74 72 74 90 87 79 90 93 95 93 96 89 84 91 91 92 89 85 84 85 85
30 34 36 36 38 42 47 52 54 52 56 68 82 75 71 75 72 81 92 93 94 97 89 89 92 90 91 90 83 71 85 82 84
32 34 34 35 38 45 49 56 57 54 65 63 64 63 66 68 77 94 95 96 96 94 91 95 94 92 89 81 68 82 80 79 76
31 30 34 39 43 46 50 56 54 58 63 66 64 69 71 84 87 97 97 97 97 97 94 93 94 91 86 88 85 80 78 80 83
44 33 38 43 42 47 54 56 56 71 66 67 75 76 77 89 93 98 97 98 96 91 93 94 95 91 93 92 79 75 78 78 78
36 33 37 41 41 50 54 54 64 69 74 72 84 86 88 94 96 98 96 98 94 86 90 95 96 88 92 91 83 78 80 76 74
31 31 33 38 40 47 51 55 58 77 78 78 81 86 91 95 96 97 97 94 91 80 91 94 86 93 91 88 88 86 79 79 79
26 30 32 34 40 48 51 57 60 77 82 78 83 86 90 97 95 96 92 92 88 82 91 92 95 95 94 92 90 90 79 74 76
61 54 44 35 40 47 57 60 66 78 80 84 90 94 96 97 96 90 90 91 87 87 89 96 96 96 96 96 93 88 82 74 69
71 60 44 54 52 50 60 61 61 79 80 88 89 97 96 97 96 90 92 90 84 90 92 87 88 84 91 96 96 92 81 76 70
65 74 69 50 50 50 61 60 61 64 82 83 93 97 94 96 95 93 92 84 78 80 84 83 82 83 84 91 96 91 84 71 70
61 70 69 64 46 52 54 61 64 66 75 83 96 93 91 92 92 92 92 82 78 76 76 73 74 75 69 73 76 69 72 70 73
64 72 70 82 67 54 50 61 66 66 74 78 91 92 89 89 90 89 88 83 88 84 86 86 84 81 69 65 67 75 78 77 81
65 67 65 64 69 70 60 63 65 67 73 77 88 88 83 84 86 84 87 83 80 85 77 84 89 84 79 79 69 76 77 77 76